User: anonymous   Login
Location: Arbon
(43.0005°N, 0.7472°E)
Time: 01:07:58
(UTC+00:00)
Language:

Meteor 2-9 Rocket - Orbit

View from above orbital plane
View from above orbital plane
View from above satellite
View from above satellite

Ground track
Ground track

The orbit data is extracted from the following two-line orbital elements,

1 13719U 82116B   20292.95240118 -.00000031 +00000-0 -22773-4 0  9995
2 13719 081.2540 245.4002 0072456 112.8779 307.2221 14.14658467952828
Epoch (UTC): 18 October 2020 22:51:27
Eccentricity: 0.0072456
inclination: 81.2540°
perigee height: 791 km
apogee height: 896 km
right ascension of ascending node: 245.4002°
argument of perigee: 112.8779°
revolutions per day: 14.14658467
mean anomaly at epoch: 307.2221°
orbit number at epoch: 95282

The dashed part of the orbit path shows where the satellite is in the earth's shadow,  

DLR